| time (UTC) | temp F | wind direction | speed knots | gust knots | rain 1hr in | rain 24hr in | rain mn in | humidity % | barometer mb |
| 20260506232559 | 54 | 92 | 4.3 | 5.2 | 0.00 | 0.00 | 0.00 | 88 | 1023.8 |
| 20260506232100 | 54 | 87 | 5.2 | 6.1 | 0.00 | 0.00 | 0.00 | 88 | 1023.8 |
| 20260506230559 | 53 | 94 | 5.2 | 6.1 | 0.00 | 0.00 | 0.00 | 88 | 1024.0 |
| 20260506230059 | 53 | 91 | 5.2 | 6.1 | 0.00 | 0.00 | 0.00 | 89 | 1024.0 |
| 20260506225558 | 53 | 89 | 5.2 | 6.1 | 0.00 | 0.00 | 0.00 | 89 | 1024.0 |
| 20260506225059 | 53 | 72 | 4.3 | 6.1 | 0.00 | 0.00 | 0.00 | 90 | 1024.1 |
| 20260506224557 | 54 | 74 | 3.5 | 6.1 | 0.00 | 0.00 | 0.00 | 89 | 1024.2 |
| 20260506224057 | 54 | 80 | 3.5 | 5.2 | 0.00 | 0.00 | 0.00 | 89 | 1024.1 |
| 20260506223556 | 54 | 88 | 3.5 | 4.3 | 0.00 | 0.00 | 0.00 | 89 | 1024.0 |
| 20260506222557 | 53 | 90 | 2.6 | 4.3 | 0.00 | 0.00 | 0.00 | 89 | 1024.1 |
| 20260506222056 | 53 | 90 | 2.6 | 5.2 | 0.00 | 0.00 | 0.00 | 89 | 1024.1 |
| 20260506221059 | 53 | 96 | 4.3 | 5.2 | 0.00 | 0.00 | 0.00 | 89 | 1024.1 |
| 20260506220549 | 53 | 98 | 4.3 | 6.1 | 0.00 | 0.00 | 0.00 | 89 | 1024.1 |
| 20260506220043 | 53 | 86 | 6.1 | 7.0 | 0.00 | 0.00 | 0.00 | 90 | 1024.1 |
| 20260506215537 | 53 | 96 | 6.1 | 7.0 | 0.00 | 0.00 | 0.00 | 90 | 1024.1 |
| 20260506215030 | 52 | 103 | 6.1 | 7.0 | 0.00 | 0.00 | 0.00 | 90 | 1024.2 |
| 20260506214525 | 53 | 94 | 5.2 | 7.0 | 0.00 | 0.00 | 0.00 | 90 | 1024.1 |
| 20260506214019 | 53 | 110 | 4.3 | 6.1 | 0.00 | 0.00 | 0.00 | 89 | 1024.2 |
| 20260506213513 | 53 | 95 | 3.5 | 5.2 | 0.00 | 0.00 | 0.00 | 89 | 1024.3 |
| 20260506212501 | 53 | 88 | 5.2 | 7.0 | 0.00 | 0.00 | 0.00 | 89 | 1024.3 |
| 20260506211458 | 53 | 93 | 4.3 | 7.0 | 0.00 | 0.00 | 0.00 | 87 | 1024.2 |
| 20260506210958 | 55 | 69 | 2.6 | 5.2 | 0.00 | 0.00 | 0.00 | 84 | 1024.2 |
| 20260506210500 | 55 | 234 | 0.9 | 3.5 | 0.00 | 0.00 | 0.00 | 85 | 1024.2 |
| 20260506205958 | 55 | 266 | 1.7 | 4.3 | 0.00 | 0.00 | 0.00 | 86 | 1024.1 |
| 20260506205459 | 55 | 276 | 2.6 | 4.3 | 0.00 | 0.00 | 0.00 | 87 | 1024.1 |
| 20260506204959 | 54 | 280 | 2.6 | 5.2 | 0.00 | 0.00 | 0.00 | 87 | 1023.9 |
| 20260506204456 | 54 | 255 | 1.7 | 5.2 | 0.00 | 0.00 | 0.00 | 88 | 1024.1 |
| 20260506203957 | 54 | 217 | 2.6 | 7.0 | 0.00 | 0.00 | 0.00 | 88 | 1024.0 |
| 20260506203453 | 54 | 281 | 2.6 | 7.0 | 0.00 | 0.00 | 0.00 | 89 | 1024.1 |
| 20260506202952 | 54 | 287 | 2.6 | 6.1 | 0.00 | 0.00 | 0.00 | 89 | 1024.1 |
| 20260506202453 | 53 | 271 | 3.5 | 8.7 | 0.00 | 0.00 | 0.00 | 90 | 1024.1 |
| 20260506201950 | 53 | 288 | 4.3 | 8.7 | 0.00 | 0.00 | 0.00 | 89 | 1024.1 |
| 20260506200955 | 53 | 281 | 3.5 | 7.0 | 0.00 | 0.00 | 0.00 | 90 | 1024.0 |
| 20260506200453 | 53 | 265 | 4.3 | 9.6 | 0.00 | 0.00 | 0.00 | 90 | 1024.0 |
| 20260506195952 | 53 | 274 | 4.3 | 9.6 | 0.00 | 0.00 | 0.00 | 90 | 1024.0 |
| 20260506195451 | 53 | 283 | 4.3 | 7.8 | 0.00 | 0.00 | 0.00 | 90 | 1023.9 |
| 20260506194945 | 52 | 275 | 3.5 | 7.8 | 0.00 | 0.00 | 0.00 | 90 | 1023.9 |
| 20260506194440 | 52 | 273 | 4.3 | 7.8 | 0.00 | 0.00 | 0.00 | 91 | 1023.9 |
| 20260506193934 | 52 | 278 | 3.5 | 7.0 | 0.00 | 0.00 | 0.00 | 91 | 1023.9 |
| 20260506193429 | 52 | 274 | 4.3 | 8.7 | 0.00 | 0.00 | 0.00 | 91 | 1023.8 |
| 20260506192926 | 52 | 295 | 4.3 | 8.7 | 0.00 | 0.00 | 0.00 | 92 | 1023.8 |
| 20260506192427 | 52 | 283 | 2.6 | 7.8 | 0.00 | 0.00 | 0.00 | 92 | 1023.8 |
| 20260506191927 | 52 | 296 | 4.3 | 7.8 | 0.00 | 0.00 | 0.00 | 93 | 1023.8 |
| 20260506190423 | 52 | 299 | 6.1 | 9.6 | 0.00 | 0.00 | 0.00 | 93 | 1023.6 |
| 20260506185422 | 51 | 273 | 3.5 | 8.7 | 0.00 | 0.00 | 0.00 | 93 | 1023.6 |
| 20260506184920 | 52 | 286 | 4.3 | 8.7 | 0.00 | 0.00 | 0.00 | 93 | 1023.7 |
| 20260506184422 | 51 | 276 | 6.1 | 8.7 | 0.00 | 0.00 | 0.00 | 93 | 1023.5 |
| 20260506183921 | 51 | 290 | 6.1 | 9.6 | 0.00 | 0.00 | 0.00 | 93 | 1023.5 |
| 20260506183421 | 51 | 276 | 5.2 | 10.4 | 0.00 | 0.00 | 0.00 | 93 | 1023.6 |
| 20260506182920 | 51 | 285 | 5.2 | 10.4 | 0.00 | 0.00 | 0.00 | 93 | 1023.4 |
| 20260506182427 | 51 | 262 | 6.1 | 10.4 | 0.00 | 0.00 | 0.00 | 93 | 1023.4 |
| 20260506181922 | 51 | 281 | 6.1 | 10.4 | 0.00 | 0.00 | 0.00 | 93 | 1023.5 |
| 20260506181422 | 51 | 269 | 5.2 | 9.6 | 0.00 | 0.00 | 0.00 | 93 | 1023.5 |
| 20260506180922 | 51 | 282 | 5.2 | 9.6 | 0.00 | 0.00 | 0.00 | 93 | 1023.4 |
| 20260506175914 | 51 | 290 | 5.2 | 9.6 | 0.00 | 0.00 | 0.00 | 93 | 1023.5 |
| 20260506175414 | 51 | 316 | 5.2 | 10.4 | 0.00 | 0.00 | 0.00 | 94 | 1023.4 |
| 20260506174914 | 51 | 286 | 4.3 | 10.4 | 0.00 | 0.00 | 0.00 | 94 | 1023.3 |
| 20260506173912 | 51 | 278 | 4.3 | 8.7 | 0.00 | 0.00 | 0.00 | 94 | 1023.2 |
| 20260506172911 | 51 | 271 | 3.5 | 7.0 | 0.00 | 0.00 | 0.00 | 94 | 1023.2 |
| 20260506172411 | 51 | 287 | 3.5 | 7.8 | 0.00 | 0.00 | 0.00 | 94 | 1023.1 |
| 20260506171910 | 51 | 261 | 3.5 | 7.8 | 0.00 | 0.00 | 0.00 | 95 | 1023.0 |
| 20260506171411 | 51 | 279 | 2.6 | 7.8 | 0.00 | 0.00 | 0.00 | 94 | 1023.1 |
| 20260506170907 | 51 | 291 | 0.9 | 4.3 | 0.00 | 0.00 | 0.00 | 95 | 1023.0 |
| 20260506170407 | 51 | 272 | 0.0 | 3.5 | 0.00 | 0.00 | 0.00 | 95 | 1022.9 |
| 20260506165906 | 51 | 253 | 0.9 | 4.3 | 0.00 | 0.00 | 0.00 | 95 | 1022.7 |
| 20260506165406 | 51 | 253 | 2.6 | 5.2 | 0.00 | 0.00 | 0.00 | 95 | 1022.7 |
| 20260506164407 | 51 | 288 | 4.3 | 7.8 | 0.00 | 0.00 | 0.00 | 94 | 1022.9 |
| 20260506163908 | 51 | 304 | 4.3 | 8.7 | 0.00 | 0.00 | 0.00 | 95 | 1022.9 |
| 20260506163406 | 51 | 262 | 4.3 | 8.7 | 0.00 | 0.00 | 0.00 | 95 | 1022.9 |
| 20260506162906 | 51 | 301 | 4.3 | 7.0 | 0.00 | 0.00 | 0.00 | 95 | 1022.8 |
| 20260506162404 | 51 | 289 | 4.3 | 7.0 | 0.00 | 0.00 | 0.00 | 95 | 1022.8 |
| 20260506161903 | 51 | 293 | 4.3 | 8.7 | 0.00 | 0.00 | 0.00 | 95 | 1022.9 |
| 20260506161404 | 51 | 290 | 4.3 | 8.7 | 0.00 | 0.00 | 0.00 | 95 | 1022.9 |
| 20260506160904 | 51 | 286 | 4.3 | 7.0 | 0.00 | 0.00 | 0.00 | 95 | 1023.1 |
| 20260506160404 | 51 | 309 | 3.5 | 6.1 | 0.00 | 0.00 | 0.00 | 95 | 1023.1 |
| 20260506155910 | 51 | 312 | 3.5 | 4.3 | 0.00 | 0.00 | 0.00 | 95 | 1023.1 |
| 20260506155402 | 51 | 315 | 4.3 | 5.2 | 0.00 | 0.00 | 0.00 | 95 | 1023.1 |
| 20260506154403 | 51 | 331 | 3.5 | 4.3 | 0.00 | 0.00 | 0.00 | 95 | 1022.9 |
| 20260506153907 | 51 | 303 | 3.5 | 5.2 | 0.00 | 0.00 | 0.00 | 95 | 1023.1 |
| 20260506153406 | 50 | 354 | 4.3 | 5.2 | 0.00 | 0.00 | 0.00 | 95 | 1023.1 |
| 20260506152404 | 50 | 329 | 2.6 | 4.3 | 0.00 | 0.00 | 0.00 | 95 | 1022.8 |
| 20260506151903 | 51 | 310 | 2.6 | 3.5 | 0.00 | 0.00 | 0.00 | 95 | 1022.7 |
| 20260506151403 | 50 | 304 | 2.6 | 3.5 | 0.00 | 0.00 | 0.00 | 95 | 1022.5 |
| 20260506150903 | 50 | 321 | 2.6 | 2.6 | 0.00 | 0.00 | 0.00 | 95 | 1022.4 |
| 20260506145905 | 50 | 41 | 2.6 | 3.5 | 0.00 | 0.00 | 0.00 | 95 | 1022.3 |
| 20260506144904 | 50 | 59 | 2.6 | 3.5 | 0.00 | 0.00 | 0.00 | 95 | 1022.3 |
| 20260506144406 | 50 | 64 | 1.7 | 3.5 | 0.00 | 0.00 | 0.00 | 95 | 1022.3 |
| 20260506143904 | 50 | 65 | 2.6 | 3.5 | 0.00 | 0.00 | 0.00 | 95 | 1022.4 |
| 20260506143403 | 50 | 65 | 2.6 | 3.5 | 0.00 | 0.00 | 0.00 | 95 | 1022.5 |
| 20260506142859 | 50 | 65 | 1.7 | 3.5 | 0.00 | 0.00 | 0.00 | 94 | 1022.5 |
| 20260506142401 | 51 | 101 | 0.0 | 1.7 | 0.00 | 0.00 | 0.00 | 94 | 1022.5 |
| 20260506141858 | 51 | 114 | 0.0 | 0.9 | 0.00 | 0.00 | 0.00 | 95 | 1022.5 |
| 20260506141358 | 51 | 114 | 0.9 | 2.6 | 0.00 | 0.00 | 0.00 | 94 | 1022.6 |
| 20260506140858 | 51 | 114 | 1.7 | 4.3 | 0.00 | 0.00 | 0.00 | 94 | 1022.3 |
| 20260506140356 | 51 | 84 | 2.6 | 4.3 | 0.00 | 0.00 | 0.00 | 94 | 1022.2 |
| 20260506135854 | 51 | 109 | 1.7 | 3.5 | 0.00 | 0.00 | 0.00 | 94 | 1022.1 |
| 20260506135358 | 51 | 82 | 0.9 | 2.6 | 0.00 | 0.00 | 0.00 | 94 | 1022.2 |
| 20260506134852 | 51 | 116 | 0.9 | 1.7 | 0.00 | 0.00 | 0.00 | 94 | 1022.2 |
| 20260506134350 | 51 | 107 | 1.7 | 2.6 | 0.00 | 0.00 | 0.00 | 94 | 1022.1 |
| 20260506133850 | 51 | 107 | 1.7 | 2.6 | 0.00 | 0.00 | 0.00 | 94 | 1022.1 |
| 20260506133350 | 51 | 117 | 1.7 | 2.6 | 0.00 | 0.00 | 0.00 | 94 | 1022.0 |
| 20260506132847 | 51 | 122 | 1.7 | 2.6 | 0.00 | 0.00 | 0.00 | 94 | 1022.0 |
| 20260506132346 | 51 | 115 | 1.7 | 2.6 | 0.00 | 0.00 | 0.00 | 93 | 1022.1 |
| 20260506131844 | 51 | 115 | 1.7 | 1.7 | 0.00 | 0.00 | 0.00 | 93 | 1022.0 |
| 20260506131342 | 51 | 115 | 0.9 | 1.7 | 0.00 | 0.00 | 0.00 | 93 | 1021.9 |
| 20260506130843 | 51 | 78 | 0.9 | 2.6 | 0.00 | 0.00 | 0.00 | 93 | 1022.0 |
| 20260506130342 | 51 | 78 | 0.9 | 2.6 | 0.00 | 0.00 | 0.00 | 93 | 1021.9 |
| 20260506125340 | 51 | 58 | 0.9 | 1.7 | 0.00 | 0.00 | 0.00 | 93 | 1022.1 |
| 20260506124836 | 51 | 70 | 0.9 | 3.5 | 0.00 | 0.00 | 0.00 | 93 | 1021.9 |
| 20260506124334 | 51 | 63 | 1.7 | 3.5 | 0.00 | 0.00 | 0.00 | 93 | 1021.8 |
| 20260506123835 | 51 | 287 | 0.9 | 2.6 | 0.00 | 0.00 | 0.00 | 93 | 1022.0 |
| 20260506123334 | 51 | 285 | 0.9 | 2.6 | 0.00 | 0.00 | 0.00 | 93 | 1022.1 |
| 20260506122834 | 51 | 282 | 0.0 | 1.7 | 0.00 | 0.00 | 0.00 | 93 | 1022.0 |
| 20260506122336 | 51 | 44 | 0.0 | 0.9 | 0.00 | 0.00 | 0.00 | 93 | 1021.9 |
| 20260506121834 | 51 | 44 | 0.0 | 0.9 | 0.00 | 0.00 | 0.00 | 93 | 1021.8 |
| 20260506121331 | 51 | 44 | 0.0 | 1.7 | 0.00 | 0.00 | 0.00 | 93 | 1021.8 |
| 20260506120832 | 51 | 44 | 1.7 | 3.5 | 0.00 | 0.00 | 0.00 | 93 | 1022.0 |
| 20260506120329 | 51 | 65 | 2.6 | 4.3 | 0.00 | 0.00 | 0.00 | 93 | 1021.9 |
| 20260506115828 | 51 | 67 | 2.6 | 4.3 | 0.00 | 0.00 | 0.00 | 93 | 1021.7 |
| 20260506115326 | 51 | 63 | 1.7 | 3.5 | 0.00 | 0.00 | 0.00 | 93 | 1021.7 |
| 20260506114827 | 51 | 46 | 1.7 | 2.6 | 0.00 | 0.00 | 0.00 | 93 | 1021.9 |
| 20260506114323 | 51 | 49 | 1.7 | 2.6 | 0.00 | 0.00 | 0.00 | 93 | 1021.8 |
| 20260506113322 | 51 | 49 | 2.6 | 2.6 | 0.00 | 0.00 | 0.00 | 93 | 1021.7 |
| 20260506112821 | 51 | 49 | 1.7 | 2.6 | 0.00 | 0.00 | 0.00 | 93 | 1021.7 |
| 20260506112323 | 51 | 49 | 0.9 | 2.6 | 0.00 | 0.00 | 0.00 | 92 | 1021.6 |
| 20260506111816 | 51 | 208 | 0.0 | 1.7 | 0.00 | 0.00 | 0.00 | 93 | 1021.5 |
| 20260506111315 | 51 | 208 | 0.0 | 0.0 | 0.00 | 0.00 | 0.00 | 93 | 1021.4 |
| 20260506110310 | 51 | 208 | 0.0 | 0.9 | 0.00 | 0.00 | 0.00 | 93 | 1021.4 |
| 20260506105810 | 51 | 208 | 0.9 | 1.7 | 0.00 | 0.00 | 0.00 | 93 | 1021.2 |
| 20260506105309 | 51 | 208 | 0.9 | 1.7 | 0.00 | 0.00 | 0.00 | 93 | 1021.2 |
| 20260506104809 | 51 | 140 | 0.9 | 1.7 | 0.00 | 0.00 | 0.00 | 93 | 1021.1 |
| 20260506104305 | 51 | 140 | 0.9 | 0.9 | 0.00 | 0.00 | 0.00 | 93 | 1021.0 |
| 20260506103304 | 51 | 140 | 1.7 | 1.7 | 0.00 | 0.00 | 0.00 | 93 | 1021.0 |
| 20260506102804 | 51 | 139 | 1.7 | 3.5 | 0.00 | 0.00 | 0.00 | 92 | 1020.8 |
| 20260506102305 | 51 | 137 | 2.6 | 3.5 | 0.00 | 0.00 | 0.00 | 92 | 1020.8 |
| 20260506101803 | 51 | 132 | 2.6 | 3.5 | 0.00 | 0.00 | 0.00 | 92 | 1020.8 |
| 20260506100801 | 51 | 120 | 2.6 | 3.5 | 0.00 | 0.00 | 0.00 | 92 | 1020.8 |
| 20260506100301 | 51 | 131 | 2.6 | 3.5 | 0.00 | 0.00 | 0.00 | 92 | 1020.8 |
| 20260506095759 | 51 | 140 | 1.7 | 3.5 | 0.00 | 0.00 | 0.00 | 91 | 1020.7 |
| 20260506095300 | 51 | 142 | 1.7 | 2.6 | 0.00 | 0.00 | 0.00 | 91 | 1020.7 |
| 20260506094758 | 51 | 143 | 2.6 | 4.3 | 0.00 | 0.00 | 0.00 | 91 | 1020.7 |
| 20260506094256 | 51 | 156 | 2.6 | 4.3 | 0.00 | 0.00 | 0.00 | 91 | 1020.7 |
| 20260506093757 | 51 | 208 | 1.7 | 3.5 | 0.00 | 0.00 | 0.00 | 91 | 1020.7 |
| 20260506093256 | 51 | 152 | 1.7 | 3.5 | 0.00 | 0.00 | 0.00 | 91 | 1020.7 |
| 20260506092256 | 51 | 146 | 1.7 | 2.6 | 0.00 | 0.00 | 0.00 | 91 | 1020.7 |
| 20260506091257 | 51 | 146 | 1.7 | 3.5 | 0.00 | 0.00 | 0.00 | 91 | 1020.7 |
| 20260506090756 | 51 | 203 | 0.9 | 3.5 | 0.00 | 0.00 | 0.00 | 91 | 1020.7 |
| 20260506085756 | 51 | 215 | 0.9 | 2.6 | 0.00 | 0.00 | 0.00 | 91 | 1020.5 |
| 20260506085251 | 51 | 268 | 1.7 | 3.5 | 0.00 | 0.00 | 0.00 | 91 | 1020.6 |
| 20260506084747 | 51 | 221 | 1.7 | 3.5 | 0.00 | 0.00 | 0.00 | 91 | 1020.5 |
| 20260506084237 | 51 | 212 | 1.7 | 3.5 | 0.00 | 0.00 | 0.00 | 91 | 1020.6 |
| 20260506083732 | 51 | 274 | 1.7 | 4.3 | 0.00 | 0.00 | 0.00 | 91 | 1020.4 |
| 20260506083227 | 51 | 264 | 1.7 | 4.3 | 0.00 | 0.00 | 0.00 | 91 | 1020.5 |
| 20260506082719 | 51 | 249 | 0.9 | 2.6 | 0.00 | 0.00 | 0.00 | 91 | 1020.5 |
| 20260506082213 | 51 | 262 | 0.9 | 2.6 | 0.00 | 0.00 | 0.00 | 91 | 1020.4 |
| 20260506081710 | 51 | 235 | 0.9 | 2.6 | 0.00 | 0.00 | 0.00 | 90 | 1020.4 |
| 20260506081201 | 51 | 203 | 0.9 | 2.6 | 0.00 | 0.00 | 0.00 | 90 | 1020.3 |
| 20260506080153 | 51 | 224 | 0.9 | 2.6 | 0.00 | 0.00 | 0.00 | 90 | 1020.3 |
| 20260506073114 | 51 | 193 | 0.9 | 3.5 | 0.00 | 0.00 | 0.00 | 90 | 1019.7 |
| 20260506072607 | 51 | 122 | 1.7 | 6.1 | 0.00 | 0.00 | 0.00 | 90 | 1019.8 |
| 20260506072102 | 51 | 284 | 3.5 | 7.0 | 0.00 | 0.00 | 0.00 | 90 | 1019.8 |
| 20260506071603 | 52 | 256 | 5.2 | 7.0 | 0.00 | 0.00 | 0.00 | 90 | 1019.6 |
| 20260506071101 | 52 | 252 | 5.2 | 8.7 | 0.00 | 0.00 | 0.00 | 90 | 1019.6 |
| 20260506070603 | 52 | 269 | 5.2 | 8.7 | 0.00 | 0.00 | 0.00 | 90 | 1019.6 |
| 20260506062053 | 52 | 273 | 7.8 | 13.9 | 0.00 | 0.00 | 0.00 | 89 | 1019.4 |
| 20260506061552 | 52 | 304 | 7.0 | 13.9 | 0.00 | 0.00 | 0.00 | 89 | 1019.4 |
| 20260506061049 | 52 | 275 | 7.0 | 12.2 | 0.00 | 0.00 | 0.00 | 89 | 1019.2 |
| 20260506051042 | 53 | 257 | 8.7 | 13.9 | 0.00 | 0.00 | 0.00 | 88 | 1019.2 |
| 20260506050541 | 53 | 293 | 7.8 | 13.9 | 0.00 | 0.00 | 0.00 | 88 | 1019.1 |
| 20260506045040 | 53 | 283 | 7.8 | 13.0 | 0.00 | 0.00 | 0.00 | 88 | 1019.0 |
| 20260506044035 | 53 | 278 | 7.8 | 11.3 | 0.00 | 0.00 | 0.00 | 87 | 1019.0 |
| 20260506043537 | 53 | 285 | 7.0 | 10.4 | 0.00 | 0.00 | 0.00 | 87 | 1019.0 |
| 20260506043037 | 53 | 266 | 6.1 | 10.4 | 0.00 | 0.00 | 0.00 | 87 | 1018.9 |
| 20260506042534 | 54 | 275 | 6.1 | 9.6 | 0.00 | 0.00 | 0.00 | 87 | 1018.9 |
| 20260506042035 | 54 | 289 | 6.1 | 9.6 | 0.00 | 0.00 | 0.00 | 87 | 1018.7 |
| 20260506041535 | 54 | 261 | 5.2 | 8.7 | 0.00 | 0.00 | 0.00 | 86 | 1018.6 |
| 20260506041035 | 54 | 278 | 5.2 | 7.8 | 0.00 | 0.00 | 0.00 | 86 | 1018.6 |
| 20260506040535 | 54 | 257 | 4.3 | 7.8 | 0.00 | 0.00 | 0.00 | 86 | 1018.4 |
| 20260506035535 | 55 | 293 | 5.2 | 9.6 | 0.00 | 0.00 | 0.00 | 85 | 1018.4 |
| 20260506035035 | 55 | 266 | 5.2 | 9.6 | 0.00 | 0.00 | 0.00 | 85 | 1018.5 |
| 20260506034535 | 55 | 278 | 5.2 | 7.8 | 0.00 | 0.00 | 0.00 | 85 | 1018.4 |
| 20260506033535 | 55 | 277 | 4.3 | 7.0 | 0.00 | 0.00 | 0.00 | 84 | 1018.3 |
| 20260506033034 | 56 | 281 | 5.2 | 7.8 | 0.00 | 0.00 | 0.00 | 84 | 1018.2 |
| 20260506032531 | 56 | 262 | 5.2 | 8.7 | 0.00 | 0.00 | 0.00 | 84 | 1018.1 |
| 20260506031531 | 56 | 286 | 5.2 | 8.7 | 0.00 | 0.00 | 0.00 | 83 | 1018.2 |
| 20260506031033 | 56 | 288 | 5.2 | 9.6 | 0.00 | 0.00 | 0.00 | 83 | 1018.3 |
| 20260506030031 | 57 | 268 | 6.1 | 9.6 | 0.00 | 0.00 | 0.00 | 82 | 1018.3 |
| 20260506025529 | 57 | 296 | 5.2 | 9.6 | 0.00 | 0.00 | 0.00 | 81 | 1018.2 |
| 20260506025029 | 58 | 278 | 5.2 | 8.7 | 0.00 | 0.00 | 0.00 | 81 | 1018.3 |
| 20260506024530 | 58 | 272 | 5.2 | 8.7 | 0.00 | 0.00 | 0.00 | 81 | 1018.3 |
| 20260506024033 | 58 | 284 | 4.3 | 7.8 | 0.00 | 0.00 | 0.00 | 80 | 1018.1 |
| 20260506023529 | 58 | 278 | 4.3 | 8.7 | 0.00 | 0.00 | 0.00 | 80 | 1018.1 |
| 20260506023029 | 58 | 279 | 4.3 | 8.7 | 0.00 | 0.00 | 0.00 | 80 | 1018.1 |
| 20260506022529 | 58 | 287 | 5.2 | 8.7 | 0.00 | 0.00 | 0.00 | 80 | 1018.2 |
| 20260506021531 | 59 | 257 | 5.2 | 8.7 | 0.00 | 0.00 | 0.00 | 80 | 1018.2 |
| 20260506021030 | 59 | 291 | 4.3 | 9.6 | 0.00 | 0.00 | 0.00 | 79 | 1018.2 |
| 20260506020027 | 59 | 282 | 6.1 | 10.4 | 0.00 | 0.00 | 0.00 | 79 | 1018.1 |
| 20260506015526 | 59 | 305 | 6.1 | 10.4 | 0.00 | 0.00 | 0.00 | 79 | 1018.1 |
| 20260506015028 | 59 | 284 | 6.1 | 10.4 | 0.00 | 0.00 | 0.00 | 79 | 1018.1 |
| 20260506014528 | 59 | 293 | 6.1 | 10.4 | 0.00 | 0.00 | 0.00 | 78 | 1018.2 |
| 20260506014027 | 59 | 259 | 7.0 | 12.2 | 0.00 | 0.00 | 0.00 | 79 | 1018.2 |
| 20260506013527 | 59 | 245 | 7.0 | 12.2 | 0.00 | 0.00 | 0.00 | 79 | 1018.3 |
| 20260506013027 | 59 | 283 | 6.1 | 12.2 | 0.00 | 0.00 | 0.00 | 79 | 1018.1 |
| 20260506012526 | 60 | 270 | 6.1 | 12.2 | 0.00 | 0.00 | 0.00 | 78 | 1018.3 |
| 20260506012027 | 60 | 248 | 7.0 | 12.2 | 0.00 | 0.00 | 0.00 | 79 | 1018.2 |
| 20260506011526 | 60 | 277 | 7.0 | 12.2 | 0.00 | 0.00 | 0.00 | 78 | 1018.2 |
| 20260506011026 | 60 | 262 | 7.0 | 11.3 | 0.00 | 0.00 | 0.00 | 78 | 1018.3 |
| 20260506010026 | 60 | 267 | 6.1 | 10.4 | 0.00 | 0.00 | 0.00 | 77 | 1018.3 |
| 20260506005027 | 60 | 267 | 4.3 | 8.7 | 0.00 | 0.00 | 0.00 | 78 | 1018.3 |
| 20260506004527 | 60 | 77 | 5.2 | 10.4 | 0.00 | 0.00 | 0.00 | 79 | 1018.3 |
| 20260506004020 | 60 | 283 | 5.2 | 10.4 | 0.00 | 0.00 | 0.00 | 77 | 1018.4 |
| 20260506003521 | 61 | 260 | 3.5 | 7.8 | 0.00 | 0.00 | 0.00 | 78 | 1018.4 |
| 20260506003023 | 61 | 295 | 3.5 | 8.7 | 0.00 | 0.00 | 0.00 | 78 | 1018.4 |
| 20260506002522 | 61 | 248 | 3.5 | 8.7 | 0.00 | 0.00 | 0.00 | 77 | 1018.3 |
| 20260506002021 | 61 | 312 | 4.3 | 8.7 | 0.00 | 0.00 | 0.00 | 79 | 1018.4 |
| 20260506001521 | 60 | 273 | 4.3 | 8.7 | 0.00 | 0.00 | 0.00 | 78 | 1018.3 |
| 20260506001018 | 61 | 275 | 4.3 | 8.7 | 0.00 | 0.00 | 0.00 | 79 | 1018.5 |
| 20260505235519 | 60 | 301 | 3.5 | 9.6 | 0.00 | 0.00 | 0.00 | 79 | 1018.6 |
| 20260505235018 | 60 | 288 | 3.5 | 7.0 | 0.00 | 0.00 | 0.00 | 80 | 1018.7 |
| 20260505233519 | 60 | 228 | 6.1 | 8.7 | 0.00 | 0.00 | 0.00 | 81 | 1018.7 |